Athol, MA

8:16 PM EST on February 20, 2017 (GMT -0500)
Orange Municipal

Weather History for KORE - December, 2011

Change the Weather History Date:

Saturday, December 31, 2011

  Actual Average Record
Temperature  
Mean Temperature 34 °F -  
Max Temperature 37 °F 31 °F 44 °F (2004)
Min Temperature 30 °F 14 °F -4 °F (1998)
Degree Days  
Heating Degree Days 32    
Moisture  
Dew Point 33 °F    
Average Humidity 95    
Maximum Humidity 100    
Minimum Humidity 75    
Precipitation  
Precipitation 0.06 in - - ()
Sea Level Pressure  
Sea Level Pressure 29.91 in    
Wind  
Wind Speed 2 mph (NNW)    
Max Wind Speed 6 mph    
Max Gust Speed -    
Visibility 4 miles    
Events Fog , Rain    
Averages and records for this station are not official NWS values.
T = Trace of Precipitation, MM = Missing Value Source: NWS Daily Summary

Daily Weather History Graph

Daily Weather History Graph

Search for Another Location

Airport or City:

Trip Planner

Search our weather history database for the weather conditions in past years. The results will help you decide how hot, cold, wet, or windy it might be!

Date:

Astronomy

Dec. 31, 2011 Rise Set
Actual Time 7:18 AM EST 4:25 PM EST
Civil Twilight 6:46 AM EST 4:57 PM EST
Nautical Twilight 6:11 AM EST 5:32 PM EST
Astronomical Twilight 5:37 AM EST 6:07 PM EST
Moon 10:53 AM EST (12/31) No Moon Set
Length of Visible Light 10h 10m
Length of Day
9h 06m
Waxing Crescent, 45% of the Moon is Illuminated
Dec 31
Waxing Crescent
Jan 1
First Quarter
Jan 9
Full
Jan 16
Last Quarter
Jan 23
New

Hourly Weather History & Observations

Time (EST) Temp. Windchill Dew Point Humidity Pressure Visibility Wind Dir Wind Speed Gust Speed Precip Events Conditions
12:04 AM 30.2 °F 26.7 °F 26.6 °F 86% 30.02 in 10.0 mi NNW 3.5 mph - N/A   Overcast
12:11 AM 30.2 °F 26.7 °F 26.6 °F 86% 30.02 in 10.0 mi NW 3.5 mph - N/A   Mostly Cloudy
12:18 AM 30.2 °F - 26.6 °F 86% 30.02 in 10.0 mi Calm Calm - N/A   Overcast
12:52 AM 30.9 °F - 26.1 °F 82% 30.03 in 10.0 mi Calm Calm - N/A   Overcast
1:03 AM 32.0 °F 28.7 °F 26.6 °F 80% 30.01 in 10.0 mi NW 3.5 mph - N/A   Overcast
1:52 AM 32.0 °F - 26.1 °F 79% 30.04 in 10.0 mi Calm Calm - N/A   Overcast
2:52 AM 33.1 °F 30.0 °F 27.0 °F 78% 30.01 in 10.0 mi North 3.5 mph - N/A   Overcast
3:04 AM 33.8 °F 30.8 °F 26.6 °F 75% 29.97 in 10.0 mi North 3.5 mph - N/A   Overcast
3:52 AM 33.1 °F 28.7 °F 27.0 °F 78% 29.98 in 10.0 mi NNW 4.6 mph - N/A   Overcast
4:52 AM 33.1 °F 30.0 °F 28.9 °F 85% 29.97 in 10.0 mi NNW 3.5 mph - N/A   Overcast
5:10 AM 33.8 °F 30.8 °F 30.2 °F 87% 29.94 in 10.0 mi North 3.5 mph - N/A   Overcast
5:52 AM 33.1 °F 27.7 °F 30.0 °F 89% 29.97 in 10.0 mi NNW 5.8 mph - N/A   Overcast
7:52 AM 33.1 °F 30.0 °F 32.0 °F 96% 29.94 in 3.0 mi NW 3.5 mph - 0.01 in Rain Light Rain
8:52 AM 33.1 °F 28.7 °F 32.0 °F 96% 29.93 in 4.0 mi North 4.6 mph - 0.03 in Rain Light Rain
9:03 AM 33.8 °F 30.8 °F 33.8 °F 100% 29.92 in 2.5 mi West 3.5 mph - 0.01 in Rain Light Rain
9:30 AM 33.8 °F - 33.8 °F 100% 29.92 in 3.0 mi Calm Calm - 0.04 in Rain Light Rain
10:17 AM 33.8 °F - 33.8 °F 100% 29.89 in 2.5 mi Calm Calm - 0.01 in Rain Light Rain
10:26 AM 33.8 °F - 33.8 °F 100% 29.89 in 6.0 mi Calm Calm - 0.01 in   Overcast
10:52 AM 35.1 °F - 34.0 °F 96% 29.90 in 8.0 mi Calm Calm - 0.02 in   Overcast
11:02 AM 35.6 °F 32.8 °F 33.8 °F 93% 29.88 in 7.0 mi NW 3.5 mph - N/A   Overcast
11:10 AM 35.6 °F 32.8 °F 33.8 °F 93% 29.88 in 7.0 mi NW 3.5 mph - N/A   Overcast
11:52 AM 36.0 °F 33.3 °F 34.0 °F 93% 29.87 in 8.0 mi NNW 3.5 mph - N/A   Overcast
12:15 PM 35.6 °F - 35.6 °F 100% 29.84 in 7.0 mi Calm Calm - N/A   Overcast
1:52 PM 37.9 °F - 37.0 °F 97% 29.84 in 5.0 mi Calm Calm - N/A   Overcast
2:32 PM 37.4 °F - 37.4 °F 100% 29.83 in 1.2 mi Calm Calm - N/A   Overcast
2:45 PM 37.4 °F 34.9 °F 37.4 °F 100% 29.83 in 0.8 mi SE 3.5 mph - N/A   Overcast
2:52 PM 37.9 °F - 37.0 °F 97% 29.85 in 0.5 mi Calm Calm - N/A Fog Fog
3:52 PM 37.9 °F - 37.0 °F 97% 29.85 in 0.2 mi Calm Calm - N/A Fog Fog
4:36 PM 37.4 °F 34.9 °F 37.4 °F 100% 29.84 in 1.5 mi NE 3.5 mph - N/A   Overcast
4:40 PM 37.4 °F 34.9 °F 37.4 °F 100% 29.84 in 3.0 mi NE 3.5 mph - N/A   Overcast
4:52 PM 37.0 °F 34.5 °F 37.0 °F 100% 29.86 in 5.0 mi North 3.5 mph - N/A   Overcast
5:49 PM 37.4 °F 34.9 °F 35.6 °F 93% 29.86 in 2.0 mi North 3.5 mph - N/A   Overcast
5:57 PM 35.6 °F 31.7 °F 35.6 °F 100% 29.86 in 1.0 mi North 4.6 mph - N/A   Overcast
6:06 PM 35.6 °F 32.8 °F 35.6 °F 100% 29.86 in 0.8 mi NNW 3.5 mph - N/A   Overcast
6:14 PM 35.6 °F 31.7 °F 35.6 °F 100% 29.87 in 1.2 mi NW 4.6 mph - N/A   Overcast
6:22 PM 35.6 °F 30.7 °F 35.6 °F 100% 29.87 in 1.8 mi NW 5.8 mph - N/A   Overcast
6:25 PM 35.6 °F 31.7 °F 35.6 °F 100% 29.87 in 1.0 mi NW 4.6 mph - N/A   Overcast
6:33 PM 35.6 °F - 35.6 °F 100% 29.87 in 0.5 mi Calm Calm - N/A Fog Fog
6:52 PM 35.1 °F - 35.1 °F 100% 29.90 in 0.5 mi Calm Calm - N/A Fog Fog
7:52 PM 34.0 °F 29.8 °F 34.0 °F 100% 29.92 in 0.8 mi WNW 4.6 mph - N/A   Mist
7:55 PM 33.8 °F 30.8 °F 33.8 °F 100% 29.90 in 1.2 mi WNW 3.5 mph - N/A   Overcast
7:59 PM 33.8 °F 30.8 °F 33.8 °F 100% 29.90 in 2.0 mi NNW 3.5 mph - N/A   Overcast
8:10 PM 33.8 °F 30.8 °F 33.8 °F 100% 29.91 in 3.0 mi WNW 3.5 mph - N/A   Overcast
8:18 PM 33.8 °F 30.8 °F 33.8 °F 100% 29.91 in 2.5 mi NW 3.5 mph - N/A   Overcast
8:25 PM 33.8 °F - 33.8 °F 100% 29.91 in 4.0 mi Calm Calm - N/A   Overcast
9:05 PM 33.8 °F - 33.8 °F 100% 29.91 in 2.0 mi Calm Calm - N/A   Overcast
9:19 PM 33.8 °F - 33.8 °F 100% 29.92 in 1.5 mi Calm Calm - N/A   Overcast
9:43 PM 33.8 °F - 32.0 °F 93% 29.92 in 1.0 mi Calm Calm - N/A   Overcast
9:52 PM 33.1 °F - 32.0 °F 96% 29.94 in 0.8 mi Calm Calm - N/A   Overcast
10:52 PM 32.0 °F - 32.0 °F 100% 29.97 in 0.5 mi Calm Calm - N/A Fog Fog